Location: Newark
(60.7728°N, 46.2261°E)
Time: 18:30:57
(UTC+00:00)

Envisat - Visible Passes

Search period start: 18 October 2019 00:00
Search period end: 28 October 2019 00:00
Orbit: 764 x 766 km, 98.1° (Epoch: 18 October)

Date Brightness Start Highest point End Pass type
(mag) Time Alt. Az. Time Alt. Az. Time Alt. Az.
18 Oct 6.1 02:26:03 10° NE 02:29:11 16° E 02:32:20 10° ESE visible
18 Oct 4.5 15:29:30 10° SSW 15:34:16 39° W 15:39:03 10° NNW visible
19 Oct 3.5 14:52:12 10° S 14:57:16 66° WSW 15:02:22 10° NNW visible
19 Oct 6.0 16:34:10 10° WSW 16:37:19 16° W 16:40:28 10° NW visible
20 Oct 5.8 02:51:02 10° NE 02:55:05 23° E 02:59:07 10° SE visible
20 Oct 3.0 14:15:22 10° SSE 14:20:27 76° ENE 14:25:34 10° NNW visible
20 Oct 5.2 15:55:43 10° SSW 16:00:01 27° W 16:04:21 10° NNW visible
21 Oct 6.2 02:15:09 10° NE 02:17:44 14° E 02:20:18 10° ESE visible
21 Oct 4.2 15:18:01 10° S 15:22:54 45° W 15:27:49 10° NNW visible
21 Oct 6.3 17:02:00 10° W 17:03:18 11° WNW 17:04:36 10° WNW visible
22 Oct 3.2 14:40:53 10° SSE 14:45:58 77° WSW 14:51:07 10° NNW visible
22 Oct 5.7 16:22:17 10° SW 16:25:52 19° W 16:29:28 10° NW visible
23 Oct 6.0 02:39:56 10° NE 02:43:40 20° E 02:47:23 10° SE visible
23 Oct 3.0 14:04:10 10° SSE 14:09:12 65° ENE 14:14:16 10° NNW visible
23 Oct 4.9 15:44:06 10° SSW 15:48:38 31° W 15:53:10 10° NNW visible
24 Oct 6.4 02:04:30 10° ENE 02:06:15 12° ENE 02:08:00 10° E visible
24 Oct 3.9 15:06:36 10° S 15:11:34 53° W 15:16:35 10° NNW visible
24 Oct 6.1 16:49:31 10° WSW 16:51:49 13° WNW 16:54:08 10° NW visible
25 Oct 5.4 03:05:05 10° NNE 03:09:30 29° E 03:13:54 10° SSE visible
25 Oct 3.0 14:29:35 10° SSE 14:34:42 89° WSW 14:39:50 10° NNW visible
25 Oct 5.5 16:10:31 10° SW 16:14:27 22° W 16:18:23 10° NW visible
26 Oct 6.0 02:28:54 10° NE 02:32:14 17° E 02:35:33 10° ESE visible
26 Oct 3.1 13:52:59 10° SE 13:57:58 56° ENE 14:02:58 10° NNW visible
26 Oct 4.6 15:32:34 10° SSW 15:37:16 37° W 15:41:59 10° NNW visible
27 Oct 3.6 14:55:13 10° S 15:00:15 62° WSW 15:05:20 10° NNW visible
27 Oct 6.0 16:37:25 10° WSW 16:40:21 15° W 16:43:18 10° NW visible
